Bookmark and Share
Track history (hours):
 

Arrantzale

Last reported at 2014-Apr-22 12:13 UTC. Time now 2014-Apr-23 07:09 UTC.
Position N 43°29' W 001°46'.

Length 32 m.

Type: Fishing. MMSI: 224065290.

NotesDate/timePositionNaut miles runAvg speedWind from/ knotsBaromVisibWave heightAir tempDewpointWater temp
2014-Apr-22 12:13N 43°29' W 001°46'6 9.2
2014-Apr-22 11:33N 43°23' W 001°47'0 0.1
2014-Apr-22 10:32N 43°23' W 001°48'3 3.1
2014-Apr-22 09:31N 43°26' W 001°46'1 0.0
2014-Apr-21 07:34N 43°25' W 001°46'2 2.4
2014-Apr-21 06:33N 43°23' W 001°47'  
2014-Apr-16 13:12N 43°23' W 001°47'0 0.1
2014-Apr-16 12:33N 43°23' W 001°47'0 0.0
2014-Apr-16 11:32N 43°23' W 001°47'0 0.0
2014-Apr-16 10:33N 43°23' W 001°47'0 0.0
2014-Apr-16 09:33N 43°23' W 001°47'3 0.1
2014-Apr-15 12:31N 43°26' W 001°46'3 2.7
2014-Apr-15 11:34N 43°23' W 001°48'0 0.0
2014-Apr-15 10:33N 43°23' W 001°48'0 0.0
2014-Apr-15 09:30N 43°23' W 001°48'0 0.0
2014-Apr-15 07:33N 43°23' W 001°48'0 0.0
2014-Apr-15 06:34N 43°23' W 001°48'0 0.1
2014-Apr-15 05:34N 43°23' W 001°47'4 0.2
2014-Apr-14 06:33N 43°27' W 001°46'4 3.7
2014-Apr-14 05:32N 43°23' W 001°48'  

Dump ship's entire track history

sailing weather and tide predictions

Arrantzale — EBVT — position and weather